TPC178 KOAK-KLAS

Flight info

Callsign TPC178
Flight time N/A
Altitude 35000
Route NTELL Q174 FLCHR COKTL4
Aircraft C700/M-SBDGHM1RWXY/LB2

Departure

Time 2026-05-05 00:17
Airport San Francisco Bay Oakland International Airport (KOAK)

Arrival

Time N/A
Airport Harry Reid International Airport (KLAS)
Time Latitude Longitude Altitude Speed Heading
2026-05-04 23:56 37.72900 -122.21226 8 ft 0 kts 305°
2026-05-05 00:07 37.72899 -122.21249 8 ft 7 kts 222°
2026-05-05 00:07 37.72832 -122.21204 8 ft 15 kts 121°
2026-05-05 00:07 37.72789 -122.21086 8 ft 15 kts 114°
2026-05-05 00:08 37.72745 -122.20964 8 ft 16 kts 112°
2026-05-05 00:08 37.72703 -122.20835 8 ft 16 kts 112°
2026-05-05 00:08 37.72661 -122.20701 8 ft 17 kts 112°
2026-05-05 00:08 37.72614 -122.20566 8 ft 17 kts 114°
2026-05-05 00:09 37.72554 -122.20464 8 ft 13 kts 175°
2026-05-05 00:09 37.72472 -122.20497 8 ft 13 kts 199°
2026-05-05 00:09 37.72385 -122.20536 8 ft 14 kts 200°
2026-05-05 00:09 37.72286 -122.20586 7 ft 17 kts 203°
2026-05-05 00:10 37.72179 -122.20662 7 ft 16 kts 239°
2026-05-05 00:10 37.72141 -122.20789 8 ft 16 kts 251°
2026-05-05 00:10 37.72100 -122.20922 9 ft 17 kts 246°
2026-05-05 00:10 37.72051 -122.21064 9 ft 18 kts 249°
2026-05-05 00:11 37.72002 -122.21226 8 ft 20 kts 244°
2026-05-05 00:11 37.71912 -122.21366 8 ft 22 kts 226°
2026-05-05 00:11 37.71809 -122.21512 8 ft 23 kts 231°
2026-05-05 00:11 37.71702 -122.21668 8 ft 24 kts 227°
2026-05-05 00:12 37.71585 -122.21828 8 ft 25 kts 229°
2026-05-05 00:12 37.71469 -122.22000 7 ft 26 kts 228°
2026-05-05 00:12 37.71340 -122.22171 7 ft 27 kts 224°
2026-05-05 00:12 37.71203 -122.22336 6 ft 28 kts 221°
2026-05-05 00:13 37.71067 -122.22422 6 ft 17 kts 152°
2026-05-05 00:13 37.70981 -122.22298 6 ft 20 kts 131°
2026-05-05 00:13 37.70886 -122.22149 6 ft 23 kts 127°
2026-05-05 00:13 37.70778 -122.21985 6 ft 25 kts 130°
2026-05-05 00:14 37.70657 -122.21811 6 ft 28 kts 129°
2026-05-05 00:14 37.70527 -122.21619 6 ft 26 kts 130°
2026-05-05 00:14 37.70431 -122.21471 6 ft 19 kts 130°
2026-05-05 00:14 37.70350 -122.21393 6 ft 14 kts 159°
2026-05-05 00:15 37.70274 -122.21360 6 ft 9 kts 167°
2026-05-05 00:15 37.70249 -122.21358 6 ft 0 kts 184°
2026-05-05 00:16 37.70238 -122.21361 6 ft 7 kts 197°
2026-05-05 00:16 37.70175 -122.21425 5 ft 12 kts 237°
2026-05-05 00:16 37.70179 -122.21471 5 ft 0 kts 305°
2026-05-05 00:16 37.70180 -122.21473 5 ft 5 kts 305°
2026-05-05 00:17 37.70299 -122.21654 4 ft 76 kts 310°
2026-05-05 00:17 37.70834 -122.22461 140 ft 155 kts 307°
2026-05-05 00:17 37.71668 -122.23728 537 ft 220 kts 307°
2026-05-05 00:17 37.72610 -122.25203 2257 ft 221 kts 307°
2026-05-05 00:18 37.73659 -122.26883 2273 ft 236 kts 306°
2026-05-05 00:18 37.74672 -122.28485 2258 ft 241 kts 307°
2026-05-05 00:18 37.75760 -122.30137 1990 ft 243 kts 307°
2026-05-05 00:18 37.76772 -122.31704 2704 ft 221 kts 307°
2026-05-05 00:19 37.77826 -122.33329 3710 ft 250 kts 307°
2026-05-05 00:19 37.78538 -122.35347 5196 ft 258 kts 276°
2026-05-05 00:19 37.78257 -122.37595 6762 ft 267 kts 244°
2026-05-05 00:19 37.77176 -122.39497 8208 ft 276 kts 227°
2026-05-05 00:20 37.75831 -122.41286 9683 ft 286 kts 230°
2026-05-05 00:20 37.74842 -122.43577 10949 ft 306 kts 249°
2026-05-05 00:20 37.74084 -122.46201 12163 ft 326 kts 252°
2026-05-05 00:20 37.73364 -122.48898 13822 ft 331 kts 252°
2026-05-05 00:21 37.72628 -122.51710 15118 ft 344 kts 252°
2026-05-05 00:21 37.71874 -122.54633 16372 ft 356 kts 253°
2026-05-05 00:21 37.71028 -122.57634 17582 ft 369 kts 244°
2026-05-05 00:21 37.69619 -122.60387 18723 ft 380 kts 229°
2026-05-05 00:22 37.67547 -122.62635 18986 ft 410 kts 209°
2026-05-05 00:22 37.64860 -122.63940 19089 ft 414 kts 186°
2026-05-05 00:22 37.62135 -122.63735 20769 ft 375 kts 159°
2026-05-05 00:22 37.59778 -122.62436 21967 ft 371 kts 140°
2026-05-05 00:23 37.57988 -122.60175 22897 ft 359 kts 116°
2026-05-05 00:23 37.56950 -122.57356 23881 ft 356 kts 105°
2026-05-05 00:23 37.55999 -122.54449 24770 ft 360 kts 106°
2026-05-05 00:23 37.55029 -122.51527 25629 ft 364 kts 106°
2026-05-05 00:24 37.54049 -122.48570 26503 ft 367 kts 106°
2026-05-05 00:24 37.53065 -122.45579 27357 ft 371 kts 106°
2026-05-05 00:24 37.52088 -122.42595 28194 ft 375 kts 106°
2026-05-05 00:24 37.51041 -122.39559 29013 ft 380 kts 108°
2026-05-05 00:25 37.49934 -122.36513 29814 ft 385 kts 109°
2026-05-05 00:25 37.48806 -122.33443 30480 ft 389 kts 109°
2026-05-05 00:25 37.47670 -122.30305 30974 ft 397 kts 109°
2026-05-05 00:25 37.46536 -122.27105 31514 ft 404 kts 109°
2026-05-05 00:26 37.45408 -122.23835 31987 ft 411 kts 109°
2026-05-05 00:26 37.44283 -122.20496 32484 ft 418 kts 109°
2026-05-05 00:26 37.43161 -122.17088 32964 ft 425 kts 109°
2026-05-05 00:26 37.42041 -122.13612 33451 ft 431 kts 109°
2026-05-05 00:27 37.40923 -122.10073 33918 ft 438 kts 109°
2026-05-05 00:27 37.39811 -122.06482 34332 ft 444 kts 109°
2026-05-05 00:27 37.38697 -122.02814 34723 ft 451 kts 109°
2026-05-05 00:27 37.37602 -121.99151 35039 ft 459 kts 109°
2026-05-05 00:28 37.36468 -121.95324 35045 ft 472 kts 109°
2026-05-05 00:28 37.34161 -121.87444 35054 ft 482 kts 109°
2026-05-05 00:29 37.32014 -121.79530 35040 ft 474 kts 105°
2026-05-05 00:29 37.30321 -121.71527 35038 ft 474 kts 103°
2026-05-05 00:30 37.28756 -121.63486 35035 ft 474 kts 103°
2026-05-05 00:30 37.27213 -121.55435 35036 ft 475 kts 103°
2026-05-05 00:31 37.25696 -121.47252 35037 ft 487 kts 103°
2026-05-05 00:31 37.24213 -121.38963 35043 ft 485 kts 103°
2026-05-05 00:32 37.22756 -121.30738 35038 ft 481 kts 102°
2026-05-05 00:32 37.21317 -121.22607 35023 ft 481 kts 103°
2026-05-05 00:33 37.19887 -121.14373 35021 ft 485 kts 103°
2026-05-05 00:33 37.18279 -121.06119 35024 ft 489 kts 106°
2026-05-05 00:34 37.16376 -120.97959 35024 ft 486 kts 107°
2026-05-05 00:34 37.14434 -120.89868 35021 ft 483 kts 108°
2026-05-05 00:35 37.12508 -120.81791 35022 ft 484 kts 108°
2026-05-05 00:35 37.10578 -120.73681 35018 ft 486 kts 107°
2026-05-05 00:36 37.09205 -120.65380 35017 ft 492 kts 93°
2026-05-05 00:36 37.09670 -120.56781 35026 ft 495 kts 84°
2026-05-05 00:37 37.10489 -120.48281 35027 ft 493 kts 84°
2026-05-05 00:37 37.11176 -120.39731 35019 ft 491 kts 85°
2026-05-05 00:38 37.11841 -120.31191 35024 ft 494 kts 85°
2026-05-05 00:38 37.12522 -120.22582 35026 ft 497 kts 85°
2026-05-05 00:39 37.13206 -120.13960 35036 ft 496 kts 85°